Wellsville, NY

11:22 PM EDT on July 20, 2017 (GMT -0400)
Wellsville Municipal-Tarantine

Weather History for KELZ - November, 2013

Change the Weather History Date:

Tuesday, November 12, 2013

  Actual Average (KDSV) Record (KDSV)
Temperature  
Mean Temperature 24 °F -  
Max Temperature 27 °F 48 °F 73 °F (1964)
Min Temperature 21 °F 33 °F 17 °F (1976)
Degree Days  
Heating Degree Days 41    
Moisture  
Dew Point 17 °F    
Average Humidity 73    
Maximum Humidity 86    
Minimum Humidity 60    
Precipitation  
Precipitation 0.01 in - - ()
Sea Level Pressure  
Sea Level Pressure 30.25 in    
Wind  
Wind Speed 12 mph (NW)    
Max Wind Speed 17 mph    
Max Gust Speed 28 mph    
Visibility 8 miles    
Events Snow    
Averages and records for this station are not official NWS values.
T = Trace of Precipitation, MM = Missing Value Source: NWS Daily Summary

Daily Weather History Graph

Daily Weather History Graph

Search for Another Location

Airport or City:

Trip Planner

Search our weather history database for the weather conditions in past years. The results will help you decide how hot, cold, wet, or windy it might be!

Date:

Astronomy

Nov. 12, 2013 Rise Set
Actual Time 6:58 AM EST 4:53 PM EST
Civil Twilight 6:28 AM EST 5:22 PM EST
Nautical Twilight 5:55 AM EST 5:56 PM EST
Astronomical Twilight 5:22 AM EST 6:29 PM EST
Moon 2:10 PM EST (11/12) 1:41 AM EST (11/12)
Length of Visible Light 10h 54m
Length of Day
9h 54m
Waxing Gibbous, 76% of the Moon is Illuminated
Nov 12
Waxing Gibbous
Nov 17
Full
Nov 25
Last Quarter
Dec 2
New
Dec 9
First Quarter

Hourly Weather History & Observations

Time (EST) Temp. Windchill Dew Point Humidity Pressure Visibility Wind Dir Wind Speed Gust Speed Precip Events Conditions
12:07 AM 26.6 °F 13.8 °F 21.2 °F 80% 30.04 in 1.5 mi NNW 17.3 mph 25.3 mph 0.00 in Snow Light Snow
12:44 AM 24.8 °F 12.4 °F 21.2 °F 86% 30.05 in 2.0 mi NNW 15.0 mph - 0.00 in Snow Light Snow
12:56 AM 25.0 °F 14.2 °F 21.0 °F 85% 30.12 in 1.8 mi NW 11.5 mph - 0.00 in Snow Light Snow
1:11 AM 24.8 °F 15.3 °F 21.2 °F 86% 30.06 in 2.0 mi NNW 9.2 mph - 0.00 in Snow Light Snow
1:34 AM 24.8 °F 14.6 °F 21.2 °F 86% 30.06 in 5.0 mi NW 10.4 mph - 0.00 in Snow Light Snow
1:45 AM 24.8 °F 15.3 °F 21.2 °F 86% 30.07 in 9.0 mi NW 9.2 mph - 0.00 in   Overcast
1:56 AM 25.0 °F 16.3 °F 19.9 °F 81% 30.13 in 10.0 mi NNW 8.1 mph - 0.00 in   Overcast
2:56 AM 25.0 °F 14.8 °F 19.9 °F 81% 30.14 in 10.0 mi NW 10.4 mph - 0.00 in   Overcast
3:56 AM 25.0 °F 17.1 °F 19.9 °F 81% 30.16 in 10.0 mi NW 6.9 mph - N/A   Overcast
4:11 AM 24.8 °F 16.1 °F 19.4 °F 80% 30.10 in 10.0 mi NW 8.1 mph - N/A   Overcast
4:56 AM 25.0 °F 15.5 °F 19.9 °F 81% 30.18 in 9.0 mi NW 9.2 mph - 0.00 in   Overcast
5:56 AM 24.1 °F 13.7 °F 18.0 °F 77% 30.21 in 10.0 mi NNW 10.4 mph 23.0 mph 0.01 in   Overcast
6:10 AM 24.8 °F 11.9 °F 17.6 °F 74% 30.14 in 10.0 mi NNW 16.1 mph 25.3 mph N/A   Overcast
6:33 AM 23.0 °F 12.4 °F 15.8 °F 74% 30.15 in 10.0 mi NNW 10.4 mph 23.0 mph N/A   Scattered Clouds
6:56 AM 21.9 °F 7.8 °F 16.0 °F 78% 30.24 in 10.0 mi NNW 17.3 mph 24.2 mph N/A   Partly Cloudy
7:56 AM 21.9 °F 11.7 °F 16.0 °F 78% 30.27 in 10.0 mi NW 9.2 mph - N/A   Mostly Cloudy
8:56 AM 23.0 °F 12.4 °F 16.0 °F 74% 30.29 in 8.0 mi NNW 10.4 mph 18.4 mph 0.00 in Snow Light Snow
9:56 AM 25.0 °F 14.8 °F 16.0 °F 69% 30.31 in 9.0 mi NNW 10.4 mph 24.2 mph 0.00 in   Overcast
10:56 AM 25.0 °F 13.6 °F 16.0 °F 69% 30.33 in 8.0 mi NNW 12.7 mph 23.0 mph 0.00 in Snow Light Snow
11:56 AM 26.1 °F 14.0 °F 15.1 °F 63% 30.32 in 10.0 mi NNW 15.0 mph 27.6 mph 0.00 in   Mostly Cloudy
12:17 PM 26.6 °F 14.7 °F 15.8 °F 64% 30.23 in 10.0 mi NNW 15.0 mph 21.9 mph N/A   Overcast
12:56 PM 27.0 °F 17.3 °F 16.0 °F 63% 30.32 in 10.0 mi NNW 10.4 mph - N/A   Overcast
1:56 PM 26.1 °F 14.0 °F 14.0 °F 60% 30.33 in 9.0 mi NW 15.0 mph 23.0 mph 0.00 in Snow Light Snow
2:56 PM 27.0 °F 16.1 °F 17.1 °F 66% 30.33 in 6.0 mi NW 12.7 mph - 0.00 in Snow Light Snow
3:56 PM 26.1 °F 14.5 °F 14.0 °F 60% 30.34 in 10.0 mi NW 13.8 mph 21.9 mph 0.00 in   Mostly Cloudy
4:56 PM 25.0 °F 12.6 °F 16.0 °F 69% 30.35 in 10.0 mi NW 15.0 mph 26.5 mph N/A   Overcast
5:46 PM 24.8 °F 14.0 °F 17.6 °F 74% 30.27 in 7.0 mi NW 11.5 mph - 0.00 in Snow Light Snow
5:56 PM 25.0 °F 17.1 °F 17.1 °F 72% 30.36 in 9.0 mi WNW 6.9 mph - 0.00 in   Overcast
6:07 PM 24.8 °F 15.3 °F 17.6 °F 74% 30.26 in 10.0 mi WNW 9.2 mph - N/A   Overcast
6:56 PM 25.0 °F 16.3 °F 17.1 °F 72% 30.37 in 10.0 mi NW 8.1 mph - N/A   Overcast
7:49 PM 24.8 °F 13.4 °F 15.8 °F 69% 30.28 in 10.0 mi NW 12.7 mph 26.5 mph N/A   Mostly Cloudy
7:56 PM 24.1 °F 11.5 °F 15.1 °F 69% 30.38 in 10.0 mi NW 15.0 mph 20.7 mph N/A   Mostly Cloudy
8:56 PM 23.0 °F 11.1 °F 12.9 °F 65% 30.39 in 10.0 mi NW 12.7 mph - N/A   Mostly Cloudy
9:56 PM 23.0 °F 9.2 °F 12.9 °F 65% 30.39 in 10.0 mi NW 17.3 mph 21.9 mph N/A   Overcast
10:31 PM 23.0 °F 10.1 °F 14.0 °F 68% 30.29 in 6.0 mi NW 15.0 mph 19.6 mph 0.00 in Snow Light Snow
10:43 PM 23.0 °F 9.6 °F 14.0 °F 68% 30.29 in 7.0 mi NW 16.1 mph 23.0 mph 0.00 in Snow Light Snow
10:56 PM 21.9 °F 8.7 °F 14.0 °F 72% 30.40 in 7.0 mi NW 15.0 mph 26.5 mph 0.00 in Snow Light Snow
11:56 PM 21.9 °F 11.0 °F 14.0 °F 72% 30.40 in 9.0 mi NW 10.4 mph - 0.00 in   Overcast